Beckley, WV

8:41 PM EST on December 06, 2019 (GMT -0500)
Raleigh County Memorial

Weather History for KBKW - November, 2019

Change the Weather History Date:

Friday, November 22, 2019

  Actual Average Record
Temperature  
Mean Temperature 43 °F 42 °F  
Max Temperature 54 °F 50 °F 76 °F (1913)
Min Temperature 32 °F 33 °F 5 °F (1964)
Degree Days  
Heating Degree Days 22 23  
Month to date heating degree days 557 432  
Since 1 July heating degree days 823 938  
Cooling Degree Days 0 0  
Month to date cooling degree days 0 0  
Year to date cooling degree days 948 556  
Moisture  
Dew Point 39 °F    
Average Humidity 84    
Maximum Humidity 100    
Minimum Humidity 43    
Precipitation  
Precipitation 0.31 in 0.10 in 1.31 in (1962)
Month to date precipitation 0.77 2.15  
Year to date precipitation 39.43 37.39  
Snow  
Snow 0.00 in 0.10 in 3.80 in (1989)
Month to date snowfall 1.8 1.4  
Since 1 September snowfall 1.8 1.8  
Snow Depth 0.00 in    
Sea Level Pressure  
Sea Level Pressure 30.02 in    
Wind  
Wind Speed 9 mph ()    
Max Wind Speed 20 mph    
Max Gust Speed 26 mph    
Visibility 7.3 miles    
Events Rain    
T = Trace of Precipitation, MM = Missing Value Source: Averaged Metar Reports

Daily Weather History Graph

Daily Weather History Graph

Search for Another Location

Airport or City:

Astronomy

Nov. 22, 2019 Rise Set
Actual Time 7:11 AM EST 5:08 PM EST
Civil Twilight 6:43 AM EST 5:37 PM EST
Nautical Twilight 6:11 AM EST 6:09 PM EST
Astronomical Twilight 5:40 AM EST 6:40 PM EST
Moon 2:22 AM EST (11/22) 3:03 PM EST (11/22)
Length of Visible Light 10h 53m
Length of Day
9h 57m
Waning Crescent, 20% of the Moon is Illuminated
Nov 22
Waning Crescent
Nov 26
New
Dec 4
First Quarter
Dec 12
Full
Dec 18
Last Quarter

Hourly Weather History & Observations

Time (EST) Temp. Windchill Dew Point Humidity Pressure Visibility Wind Dir Wind Speed Gust Speed Precip Events Conditions
12:24 AM 52.0 °F - 36.0 °F 54% 30.03 in 10.0 mi SW 5.8 mph - N/A   Overcast
12:51 AM 53.1 °F - 33.1 °F 47% 29.99 in 10.0 mi SW 6.9 mph - N/A   Overcast
1:51 AM 54.0 °F - 32.0 °F 43% 29.98 in 10.0 mi SW 9.2 mph - N/A   Overcast
2:51 AM 53.1 °F - 34.0 °F 48% 29.98 in 10.0 mi SW 10.4 mph - N/A   Overcast
3:51 AM 53.1 °F - 35.1 °F 50% 29.95 in 10.0 mi WSW 9.2 mph - N/A   Overcast
5:47 AM 50.0 °F - 39.2 °F 66% 30.00 in 6.0 mi WSW 12.7 mph 21.9 mph 0.00 in Rain Light Rain
5:51 AM 50.0 °F - 41.0 °F 71% 30.00 in 6.0 mi WSW 16.1 mph 23.0 mph 0.01 in Rain Light Rain
6:04 AM 48.9 °F - 42.1 °F 77% 30.00 in 9.0 mi WSW 11.5 mph 21.9 mph 0.00 in Rain Light Rain
6:48 AM 46.4 °F 41.5 °F 44.6 °F 93% 30.01 in 5.0 mi SW 10.4 mph - 0.04 in Rain Light Rain
6:51 AM 46.9 °F - 44.1 °F 90% 30.00 in 5.0 mi WSW 10.4 mph - 0.05 in Rain Light Rain
7:06 AM 46.9 °F - 44.1 °F 90% 30.01 in 5.0 mi WSW 10.4 mph - 0.01 in Rain Light Rain
7:51 AM 46.9 °F - 44.1 °F 90% 29.99 in 2.5 mi WSW 11.5 mph 18.4 mph 0.09 in Rain Rain
8:51 AM 46.9 °F - 44.1 °F 90% 30.00 in 4.0 mi WSW 12.7 mph - 0.05 in Rain Light Rain
9:02 AM 46.9 °F - 44.1 °F 90% 30.01 in 4.0 mi WSW 9.2 mph - 0.01 in Rain Light Rain
9:51 AM 46.9 °F - 44.1 °F 90% 29.99 in 5.0 mi WSW 10.4 mph 19.6 mph 0.05 in Rain Light Rain
10:16 AM 46.9 °F - 44.1 °F 90% 29.99 in 7.0 mi SW 15.0 mph 23.0 mph 0.01 in Rain Light Rain
10:51 AM 46.9 °F - 44.1 °F 90% 29.99 in 6.0 mi West 15.0 mph 19.6 mph 0.02 in Rain Light Rain
11:23 AM 46.9 °F - 45.0 °F 93% 30.00 in 1.8 mi West 12.7 mph 19.6 mph 0.01 in Rain Light Rain
11:34 AM 48.2 °F - 44.6 °F 87% 30.00 in 2.0 mi West 10.4 mph - N/A Rain Light Rain
11:51 AM 48.0 °F - 46.0 °F 93% 29.98 in 3.0 mi West 10.4 mph - 0.01 in   Overcast
12:19 PM 48.0 °F - 45.0 °F 89% 29.99 in 10.0 mi WNW 16.1 mph 23.0 mph N/A   Overcast
12:42 PM 44.1 °F 36.8 °F 42.1 °F 93% 29.99 in 10.0 mi NNW 16.1 mph 24.2 mph 0.00 in   Overcast
12:51 PM 44.1 °F 37.7 °F 42.1 °F 93% 29.99 in 5.0 mi NNW 12.7 mph 21.9 mph 0.00 in Rain Light Rain
1:01 PM 44.1 °F 39.0 °F 42.1 °F 93% 29.99 in 2.0 mi NNW 9.2 mph - 0.01 in Rain Light Rain
1:24 PM 43.0 °F 37.2 °F 41.0 °F 93% 30.00 in 2.0 mi NNW 10.4 mph - 0.01 in Rain Light Rain
1:33 PM 43.0 °F 37.2 °F 41.0 °F 93% 30.00 in 1.5 mi NNW 10.4 mph - 0.02 in Rain Light Rain
1:51 PM 43.0 °F 36.8 °F 41.0 °F 93% 29.99 in 2.5 mi North 11.5 mph - 0.03 in Rain Light Rain
2:00 PM 43.0 °F 36.8 °F 41.0 °F 93% 29.99 in 3.0 mi NNW 11.5 mph - 0.00 in   Overcast
2:08 PM 43.0 °F 38.8 °F 42.1 °F 97% 29.99 in 7.0 mi NNW 6.9 mph - 0.00 in   Overcast
2:38 PM 43.0 °F 38.8 °F 42.1 °F 97% 30.00 in 10.0 mi NW 6.9 mph - 0.00 in   Overcast
2:51 PM 43.0 °F 38.2 °F 43.0 °F 100% 30.00 in 10.0 mi North 8.1 mph - 0.00 in   Overcast
3:51 PM 42.1 °F 38.4 °F 42.1 °F 100% 30.02 in 8.0 mi NW 5.8 mph - N/A   Overcast
4:21 PM 42.1 °F 38.4 °F 39.0 °F 89% 30.02 in 10.0 mi WNW 5.8 mph - N/A   Overcast
4:28 PM 42.1 °F 37.1 °F 37.9 °F 85% 30.02 in 10.0 mi WNW 8.1 mph - N/A   Overcast
4:51 PM 41.0 °F 36.4 °F 37.0 °F 86% 30.04 in 10.0 mi NW 6.9 mph - N/A   Mostly Cloudy
5:33 PM 39.9 °F 35.8 °F 36.0 °F 86% 30.05 in 10.0 mi NNW 5.8 mph - N/A   Mostly Cloudy
5:41 PM 39.9 °F 35.1 °F 36.0 °F 86% 30.05 in 10.0 mi NNW 6.9 mph - N/A   Overcast
5:51 PM 39.9 °F 35.1 °F 36.0 °F 86% 30.07 in 10.0 mi NNW 6.9 mph - N/A   Overcast
6:51 PM 39.0 °F 34.0 °F 34.0 °F 82% 30.09 in 10.0 mi NNW 6.9 mph - N/A   Overcast
7:45 PM 39.2 °F 35.9 °F 33.8 °F 81% 30.06 in 10.0 mi North 4.6 mph - N/A   Overcast
7:51 PM 39.0 °F 34.8 °F 35.1 °F 86% 30.09 in 10.0 mi North 5.8 mph - N/A   Overcast
8:17 PM 37.9 °F 34.4 °F 35.1 °F 89% 30.08 in 10.0 mi North 4.6 mph - N/A   Overcast
8:24 PM 37.9 °F 33.5 °F 34.0 °F 86% 30.08 in 10.0 mi North 5.8 mph - N/A   Overcast
8:51 PM 37.9 °F 34.4 °F 33.1 °F 83% 30.10 in 10.0 mi NNE 4.6 mph - N/A   Overcast
9:21 PM 37.0 °F 33.3 °F 33.1 °F 86% 30.07 in 10.0 mi NNE 4.6 mph - N/A   Overcast
9:51 PM 37.0 °F 34.5 °F 32.0 °F 82% 30.10 in 10.0 mi ENE 3.5 mph - N/A   Overcast
10:51 PM 34.0 °F 31.0 °F 30.0 °F 85% 30.09 in 10.0 mi SSE 3.5 mph - N/A   Clear
11:51 PM 33.1 °F - 30.0 °F 89% 30.07 in 10.0 mi Calm Calm - N/A   Clear